Location: Fort Worth, Tx
(32.7431°N, 97.3695°W)
Time: 06:11:12
(UTC-05:00)

Explorer 11/Cluster Stage 4 - Pass Details

Date: 14 February 2026
Orbit: 463 x 1176 km, 28.8° (Epoch: 5 March)

Event Time Altitude Azimuth Distance (km) Brightness Sun altitude
Rises 21:47:46 0° 256° (WSW) 2,804 10.4 -32.8°
Reaches altitude 10° 21:51:22 10° 225° (SW) 2,056 9.1 -33.6°
Enters shadow 21:52:14 11° 214° (SW) 1,995 8.9 -33.8°
